SIA606 WSSS-WIII

Flight info

Callsign SIA606
Flight time N/A
Altitude 39000
Route ANITO8B ANITO B470 BUNIK
Aircraft A359/H-SDE2E3GHIJ3J4J5LM1ORWXY/LB1D1

Departure

Time 2026-05-07 11:15
Airport Singapore Changi Airport (WSSS)

Arrival

Time N/A
Airport Soekarno-Hatta International Airport (WIII)
Time Latitude Longitude Altitude Speed Heading
2026-05-07 10:52 1.36122 103.99266 31 ft 0 kts 289°
2026-05-07 11:04 1.36117 103.99281 30 ft 2 kts 289°
2026-05-07 11:04 1.36111 103.99296 30 ft 2 kts 289°
2026-05-07 11:04 1.36106 103.99311 29 ft 2 kts 299°
2026-05-07 11:04 1.36098 103.99322 32 ft 2 kts 315°
2026-05-07 11:05 1.36087 103.99333 33 ft 2 kts 319°
2026-05-07 11:05 1.36072 103.99343 34 ft 3 kts 338°
2026-05-07 11:05 1.36059 103.99347 34 ft 0 kts 353°
2026-05-07 11:11 1.36060 103.99348 36 ft 0 kts 355°
2026-05-07 11:11 1.36062 103.99349 36 ft 1 kts 13°
2026-05-07 11:11 1.36096 103.99360 36 ft 9 kts 18°
2026-05-07 11:11 1.36177 103.99391 35 ft 16 kts 22°
2026-05-07 11:12 1.36273 103.99442 36 ft 13 kts 40°
2026-05-07 11:12 1.36332 103.99529 36 ft 18 kts 78°
2026-05-07 11:12 1.36293 103.99658 36 ft 22 kts 112°
2026-05-07 11:12 1.36249 103.99759 34 ft 0 kts 113°
2026-05-07 11:14 1.36221 103.99823 31 ft 19 kts 114°
2026-05-07 11:14 1.36081 103.99842 30 ft 29 kts 202°
2026-05-07 11:15 1.35732 103.99696 32 ft 86 kts 203°
2026-05-07 11:15 1.34996 103.99389 31 ft 142 kts 202°
2026-05-07 11:15 1.33934 103.98938 141 ft 180 kts 202°
2026-05-07 11:15 1.32803 103.98456 860 ft 171 kts 201°
2026-05-07 11:16 1.31691 103.97988 1371 ft 181 kts 202°
2026-05-07 11:16 1.30456 103.97469 1629 ft 204 kts 202°
2026-05-07 11:16 1.29105 103.96900 2065 ft 215 kts 202°
2026-05-07 11:16 1.27711 103.96379 2660 ft 218 kts 194°
2026-05-07 11:17 1.26194 103.96292 3215 ft 222 kts 171°
2026-05-07 11:17 1.24779 103.96916 3734 ft 228 kts 145°
2026-05-07 11:17 1.23472 103.97959 3991 ft 252 kts 139°
2026-05-07 11:17 1.22113 103.99152 4445 ft 265 kts 139°
2026-05-07 11:18 1.20717 104.00381 5152 ft 269 kts 139°
2026-05-07 11:18 1.19293 104.01627 5843 ft 273 kts 139°
2026-05-07 11:18 1.17854 104.02881 6522 ft 276 kts 139°
2026-05-07 11:18 1.16396 104.04149 7227 ft 279 kts 139°
2026-05-07 11:19 1.14922 104.05429 7955 ft 281 kts 139°
2026-05-07 11:19 1.13435 104.06720 8688 ft 285 kts 138°
2026-05-07 11:19 1.11928 104.08028 9437 ft 288 kts 138°
2026-05-07 11:19 1.10426 104.09332 10120 ft 292 kts 138°
2026-05-07 11:20 1.08852 104.10698 10520 ft 307 kts 138°
2026-05-07 11:20 1.07187 104.12144 10810 ft 325 kts 138°
2026-05-07 11:20 1.05433 104.13666 11088 ft 342 kts 138°
2026-05-07 11:20 1.03598 104.15258 11372 ft 356 kts 138°
2026-05-07 11:21 1.01703 104.16901 11822 ft 363 kts 138°
2026-05-07 11:21 0.99784 104.18566 12358 ft 367 kts 138°
2026-05-07 11:21 0.97845 104.20247 12893 ft 371 kts 138°
2026-05-07 11:21 0.95915 104.21921 13466 ft 374 kts 138°
2026-05-07 11:22 0.93941 104.23633 13950 ft 377 kts 137°
2026-05-07 11:22 0.91951 104.25359 14424 ft 380 kts 137°
2026-05-07 11:22 0.89946 104.27098 14872 ft 383 kts 137°
2026-05-07 11:22 0.87926 104.28850 15354 ft 386 kts 137°
2026-05-07 11:23 0.85892 104.30615 15808 ft 389 kts 137°
2026-05-07 11:23 0.83839 104.32396 16261 ft 392 kts 137°
2026-05-07 11:23 0.81772 104.34188 16711 ft 394 kts 137°
2026-05-07 11:23 0.79691 104.35993 17173 ft 397 kts 137°
2026-05-07 11:24 0.77594 104.37813 17617 ft 400 kts 137°
2026-05-07 11:24 0.75477 104.39649 18073 ft 403 kts 137°
2026-05-07 11:24 0.73350 104.41493 18445 ft 406 kts 137°
2026-05-07 11:24 0.71212 104.43348 18812 ft 408 kts 137°
2026-05-07 11:25 0.69082 104.45195 19179 ft 411 kts 137°
2026-05-07 11:25 0.66910 104.47079 19570 ft 413 kts 137°
2026-05-07 11:25 0.64734 104.48967 19949 ft 415 kts 137°
2026-05-07 11:25 0.62543 104.50866 20328 ft 418 kts 137°
2026-05-07 11:26 0.60341 104.52776 20688 ft 420 kts 137°
2026-05-07 11:26 0.58151 104.54675 21075 ft 423 kts 137°
2026-05-07 11:26 0.55894 104.56633 21435 ft 425 kts 137°
2026-05-07 11:26 0.53680 104.58554 21801 ft 428 kts 137°
2026-05-07 11:27 0.51428 104.60507 22194 ft 430 kts 137°
2026-05-07 11:27 0.49142 104.62459 22560 ft 433 kts 140°
2026-05-07 11:27 0.46620 104.64144 22906 ft 438 kts 150°
2026-05-07 11:27 0.43772 104.65298 23274 ft 443 kts 161°
2026-05-07 11:28 0.40815 104.66194 23591 ft 446 kts 162°
2026-05-07 11:28 0.37827 104.67064 23896 ft 448 kts 162°
2026-05-07 11:28 0.34831 104.67939 24222 ft 450 kts 162°
2026-05-07 11:28 0.31822 104.68823 24561 ft 452 kts 162°
2026-05-07 11:29 0.28795 104.69715 24899 ft 454 kts 162°
2026-05-07 11:29 0.25761 104.70611 25250 ft 456 kts 162°
2026-05-07 11:29 0.22705 104.71515 25603 ft 458 kts 162°
2026-05-07 11:29 0.19644 104.72421 25975 ft 460 kts 162°
2026-05-07 11:30 0.16607 104.73321 26357 ft 463 kts 162°
2026-05-07 11:30 0.13498 104.74243 26762 ft 465 kts 162°
2026-05-07 11:30 0.10387 104.75167 27152 ft 468 kts 162°
2026-05-07 11:30 0.07256 104.76096 27537 ft 470 kts 162°
2026-05-07 11:31 0.04109 104.77030 27933 ft 473 kts 162°
2026-05-07 11:31 0.00945 104.77969 28324 ft 475 kts 162°
2026-05-07 11:31 -0.02212 104.78907 28722 ft 478 kts 162°
2026-05-07 11:31 -0.05407 104.79855 29101 ft 481 kts 162°
2026-05-07 11:32 -0.11863 104.81772 29825 ft 486 kts 162°
2026-05-07 11:32 -0.15125 104.82741 30126 ft 489 kts 162°
2026-05-07 11:32 -0.18389 104.83711 30410 ft 491 kts 162°
2026-05-07 11:33 -0.21680 104.84688 30702 ft 494 kts 162°
2026-05-07 11:33 -0.24979 104.85672 30990 ft 496 kts 162°
2026-05-07 11:33 -0.28208 104.86889 31264 ft 497 kts 154°
2026-05-07 11:33 -0.31219 104.88573 31535 ft 497 kts 147°
2026-05-07 11:34 -0.34138 104.90453 31803 ft 499 kts 145°
2026-05-07 11:34 -0.37019 104.92402 32063 ft 501 kts 144°
2026-05-07 11:34 -0.39858 104.94358 32324 ft 503 kts 144°
2026-05-07 11:34 -0.42742 104.96351 32569 ft 504 kts 144°
2026-05-07 11:35 -0.45638 104.98342 32885 ft 504 kts 144°
2026-05-07 11:35 -0.48527 105.00316 33272 ft 503 kts 145°
2026-05-07 11:35 -0.51426 105.02286 33642 ft 502 kts 145°
2026-05-07 11:35 -0.54316 105.04245 33981 ft 500 kts 145°
2026-05-07 11:36 -0.57198 105.06194 34258 ft 500 kts 145°
2026-05-07 11:36 -0.60043 105.08118 34529 ft 500 kts 145°
2026-05-07 11:36 -0.62922 105.10065 34801 ft 499 kts 145°
2026-05-07 11:36 -0.65797 105.12009 35090 ft 499 kts 145°
2026-05-07 11:37 -0.68670 105.13953 35366 ft 498 kts 145°
2026-05-07 11:37 -0.71537 105.15892 35651 ft 497 kts 145°
2026-05-07 11:37 -0.74404 105.17832 35910 ft 497 kts 145°
2026-05-07 11:37 -0.77271 105.19772 36165 ft 497 kts 145°
2026-05-07 11:38 -0.80132 105.21708 36421 ft 496 kts 145°
2026-05-07 11:38 -0.82985 105.23639 36695 ft 496 kts 145°
2026-05-07 11:38 -0.85849 105.25577 36809 ft 496 kts 145°
2026-05-07 11:39 -0.91558 105.29441 36812 ft 495 kts 145°
2026-05-07 11:39 -0.97261 105.33300 36806 ft 495 kts 145°
2026-05-07 11:40 -1.02930 105.37138 36808 ft 495 kts 145°
2026-05-07 11:40 -1.08630 105.40996 36809 ft 495 kts 145°
2026-05-07 11:41 -1.14325 105.44850 36811 ft 495 kts 145°
2026-05-07 11:41 -1.20032 105.48714 36808 ft 495 kts 145°
2026-05-07 11:42 -1.25709 105.52556 36810 ft 494 kts 145°
2026-05-07 11:42 -1.31417 105.56421 36812 ft 494 kts 145°
2026-05-07 11:43 -1.37114 105.60278 36812 ft 494 kts 145°
2026-05-07 11:43 -1.42774 105.64110 36813 ft 494 kts 145°
2026-05-07 11:44 -1.48476 105.67972 36815 ft 494 kts 145°
2026-05-07 11:44 -1.54132 105.71801 36813 ft 493 kts 145°
2026-05-07 11:45 -1.59813 105.75648 36814 ft 493 kts 145°
2026-05-07 11:45 -1.65509 105.79506 36813 ft 493 kts 145°
2026-05-07 11:46 -1.71193 105.83355 36813 ft 494 kts 145°
2026-05-07 11:46 -1.76881 105.87208 36816 ft 494 kts 145°
2026-05-07 11:47 -1.82566 105.91059 36815 ft 494 kts 145°
2026-05-07 11:47 -1.88268 105.94922 36821 ft 494 kts 145°
2026-05-07 11:48 -1.93923 105.98753 36822 ft 494 kts 145°
2026-05-07 11:48 -1.99621 106.02614 36809 ft 494 kts 145°
2026-05-07 11:49 -2.05318 106.06474 36823 ft 495 kts 145°
2026-05-07 11:49 -2.11024 106.10341 36821 ft 495 kts 145°
2026-05-07 11:50 -2.16987 106.13715 36824 ft 496 kts 158°
2026-05-07 11:50 -2.23673 106.15459 36821 ft 498 kts 168°
2026-05-07 11:51 -2.30520 106.16652 36812 ft 499 kts 169°
2026-05-07 11:51 -2.37385 106.17771 36824 ft 500 kts 169°
2026-05-07 11:52 -2.44213 106.18909 36821 ft 500 kts 169°
2026-05-07 11:52 -2.51082 106.20079 36822 ft 500 kts 169°
2026-05-07 11:53 -2.57953 106.21256 36825 ft 500 kts 169°
2026-05-07 11:53 -2.64838 106.22436 36820 ft 500 kts 169°
2026-05-07 11:54 -2.71674 106.23606 36824 ft 501 kts 169°
2026-05-07 11:54 -2.78546 106.24783 36823 ft 501 kts 169°
2026-05-07 11:55 -2.84269 106.25762 36819 ft 501 kts 169°
2026-05-07 11:55 -2.92273 106.27133 36821 ft 502 kts 169°
2026-05-07 11:56 -2.99166 106.28313 36820 ft 502 kts 169°
2026-05-07 11:56 -3.06063 106.29494 36821 ft 502 kts 169°
2026-05-07 11:57 -3.11793 106.30476 36820 ft 502 kts 169°
2026-05-07 11:57 -3.18689 106.31656 36820 ft 503 kts 169°
2026-05-07 11:58 -3.25597 106.32840 36820 ft 503 kts 169°
2026-05-07 11:58 -3.32458 106.34016 36819 ft 504 kts 169°
2026-05-07 11:59 -3.39387 106.35204 36822 ft 504 kts 169°
2026-05-07 11:59 -3.46316 106.36391 36822 ft 504 kts 169°
2026-05-07 12:00 -3.53196 106.37571 36823 ft 505 kts 169°
2026-05-07 12:00 -3.60129 106.38760 36824 ft 504 kts 169°
2026-05-07 12:01 -3.67057 106.39993 36824 ft 504 kts 168°
2026-05-07 12:01 -3.73935 106.41295 36824 ft 504 kts 168°
2026-05-07 12:02 -3.80840 106.42593 36825 ft 505 kts 169°
2026-05-07 12:02 -3.87741 106.43886 36825 ft 505 kts 169°
2026-05-07 12:03 -3.94635 106.45178 36828 ft 505 kts 169°
2026-05-07 12:03 -4.01541 106.46470 36825 ft 505 kts 169°
2026-05-07 12:04 -4.08419 106.47758 36825 ft 505 kts 169°
2026-05-07 12:04 -4.15350 106.49056 36826 ft 505 kts 169°
2026-05-07 12:05 -4.22277 106.50353 36828 ft 505 kts 169°
2026-05-07 12:05 -4.29151 106.51641 36827 ft 505 kts 169°
2026-05-07 12:06 -4.36076 106.52938 36823 ft 505 kts 169°
2026-05-07 12:06 -4.42987 106.54233 36824 ft 505 kts 169°
2026-05-07 12:07 -4.49906 106.55530 36827 ft 505 kts 169°
2026-05-07 12:07 -4.56773 106.56817 36826 ft 505 kts 169°
2026-05-07 12:07 -4.60202 106.57458 36525 ft 499 kts 169°
2026-05-07 12:08 -4.63632 106.58049 35865 ft 500 kts 171°
2026-05-07 12:08 -4.67085 106.58526 35139 ft 502 kts 172°
2026-05-07 12:08 -4.70556 106.58976 34447 ft 504 kts 172°
2026-05-07 12:08 -4.74044 106.59438 33737 ft 506 kts 172°
2026-05-07 12:09 -4.77541 106.59908 32918 ft 508 kts 172°
2026-05-07 12:09 -4.81057 106.60387 32126 ft 510 kts 171°
2026-05-07 12:09 -4.84588 106.60871 31343 ft 511 kts 171°
2026-05-07 12:09 -4.88068 106.61349 30668 ft 511 kts 171°
2026-05-07 12:10 -4.91585 106.61834 30116 ft 507 kts 171°
2026-05-07 12:10 -4.95069 106.62315 29540 ft 503 kts 171°
2026-05-07 12:10 -4.98526 106.62792 28931 ft 499 kts 171°
2026-05-07 12:10 -5.01962 106.63268 28340 ft 495 kts 171°
2026-05-07 12:11 -5.05357 106.63738 27796 ft 491 kts 171°
2026-05-07 12:11 -5.08737 106.64205 27243 ft 487 kts 171°
2026-05-07 12:11 -5.12040 106.64661 26702 ft 483 kts 171°
2026-05-07 12:11 -5.15363 106.65120 26183 ft 479 kts 171°
2026-05-07 12:12 -5.18657 106.65575 25635 ft 475 kts 171°
2026-05-07 12:12 -5.21928 106.66029 25113 ft 471 kts 170°
2026-05-07 12:12 -5.25167 106.66479 24603 ft 467 kts 170°
2026-05-07 12:12 -5.28387 106.66925 24073 ft 464 kts 171°
2026-05-07 12:13 -5.31543 106.67298 23575 ft 461 kts 175°
2026-05-07 12:13 -5.34771 106.67255 22687 ft 466 kts 185°
2026-05-07 12:13 -5.37954 106.66554 21789 ft 471 kts 198°
2026-05-07 12:13 -5.40945 106.65200 21086 ft 470 kts 206°
2026-05-07 12:14 -5.43831 106.63675 20397 ft 467 kts 207°
2026-05-07 12:14 -5.46692 106.62144 19792 ft 463 kts 207°
2026-05-07 12:14 -5.49520 106.60629 19186 ft 458 kts 207°
2026-05-07 12:14 -5.52322 106.59130 18614 ft 454 kts 206°
2026-05-07 12:15 -5.55097 106.57646 18042 ft 449 kts 206°
2026-05-07 12:15 -5.57846 106.56178 17379 ft 445 kts 206°
2026-05-07 12:15 -5.60534 106.54742 16709 ft 441 kts 206°
2026-05-07 12:15 -5.63231 106.53300 16061 ft 437 kts 206°
2026-05-07 12:16 -5.65909 106.51871 15428 ft 433 kts 206°
2026-05-07 12:16 -5.68563 106.50453 14797 ft 429 kts 206°
2026-05-07 12:16 -5.71195 106.49048 14211 ft 424 kts 206°
2026-05-07 12:16 -5.73732 106.47691 13947 ft 412 kts 206°
2026-05-07 12:17 -5.76252 106.46343 13714 ft 398 kts 206°
2026-05-07 12:17 -5.78634 106.45069 13486 ft 386 kts 206°
2026-05-07 12:17 -5.80961 106.43825 13254 ft 373 kts 206°
2026-05-07 12:17 -5.83217 106.42620 13064 ft 361 kts 206°
2026-05-07 12:18 -5.85407 106.41448 12867 ft 350 kts 206°
2026-05-07 12:18 -5.87530 106.40313 12685 ft 339 kts 206°
2026-05-07 12:18 -5.89578 106.39218 12499 ft 328 kts 206°
2026-05-07 12:18 -5.91565 106.38156 12332 ft 318 kts 206°
2026-05-07 12:19 -5.93484 106.37130 12177 ft 307 kts 206°
2026-05-07 12:19 -5.95338 106.36138 12039 ft 297 kts 206°
2026-05-07 12:19 -5.97133 106.35178 11902 ft 287 kts 206°
2026-05-07 12:19 -5.98853 106.34258 11769 ft 278 kts 206°
2026-05-07 12:20 -6.00531 106.33360 11651 ft 268 kts 206°
2026-05-07 12:20 -6.02150 106.32495 11509 ft 259 kts 206°
2026-05-07 12:20 -6.03735 106.31708 11355 ft 250 kts 198°
2026-05-07 12:20 -6.05416 106.31504 11091 ft 241 kts 171°
2026-05-07 12:21 -6.07062 106.31760 10827 ft 238 kts 167°
2026-05-07 12:21 -6.08684 106.32066 10538 ft 237 kts 167°
2026-05-07 12:21 -6.10305 106.32368 10263 ft 236 kts 167°
2026-05-07 12:21 -6.11947 106.32668 9750 ft 246 kts 168°
2026-05-07 12:22 -6.13678 106.32980 9120 ft 258 kts 168°
2026-05-07 12:22 -6.15470 106.33300 8499 ft 269 kts 168°
2026-05-07 12:22 -6.17357 106.33634 7886 ft 279 kts 168°
2026-05-07 12:22 -6.19291 106.34004 7277 ft 286 kts 164°
2026-05-07 12:23 -6.21039 106.34945 6689 ft 288 kts 134°
2026-05-07 12:23 -6.22213 106.36558 6110 ft 292 kts 120°
2026-05-07 12:23 -6.23232 106.38346 5486 ft 297 kts 118°
2026-05-07 12:23 -6.23727 106.40318 5158 ft 289 kts 88°
2026-05-07 12:24 -6.23261 106.42235 5008 ft 278 kts 68°
2026-05-07 12:24 -6.22447 106.43952 4842 ft 268 kts 65°
2026-05-07 12:24 -6.21671 106.45614 4699 ft 257 kts 68°
2026-05-07 12:24 -6.21009 106.47246 4562 ft 247 kts 70°
2026-05-07 12:25 -6.20399 106.48820 4428 ft 236 kts 70°
2026-05-07 12:25 -6.19816 106.50307 4336 ft 221 kts 70°
2026-05-07 12:25 -6.19268 106.51696 4187 ft 208 kts 70°
2026-05-07 12:25 -6.18747 106.53010 4069 ft 197 kts 70°
2026-05-07 12:26 -6.18258 106.54243 4006 ft 182 kts 70°
2026-05-07 12:26 -6.17805 106.55383 3896 ft 171 kts 70°
2026-05-07 12:26 -6.17372 106.56477 3705 ft 166 kts 70°
2026-05-07 12:26 -6.16950 106.57545 3436 ft 166 kts 70°
2026-05-07 12:27 -6.16508 106.58664 2885 ft 184 kts 70°
2026-05-07 12:27 -6.16023 106.59889 2463 ft 191 kts 69°
2026-05-07 12:27 -6.15528 106.61134 2099 ft 193 kts 69°
2026-05-07 12:27 -6.15034 106.62383 1632 ft 190 kts 69°